Flag for U.S.A. Weather past 2 weeks in Hollywood, Florida, U.S.A.

Now
63 °F

Sunny.


Feels Like: 63 °F
Forecast: 52 / 69 °F
Wind: 10 mph from Northwest

Location: Fort Lauderdale / Hollywood International Airport

Current Time: Jan 27, 2015 at 12:04:43 PM

Latest Report: Jan 27, 2015 at 10:53 AM


Visibility: 10 mi

Pressure: 30.06 "Hg

Humidity: 35%

Dew point: 35 °F

Location of HollywoodLocation

Historic Weather in Hollywood — Graph

°F

Hollywood temperature yesterday

Maximum temperature yesterday: 73 °F (at 1:53 PM)
Minimum temperature yesterday: 53 °F (at 1:53 AM)
Average temperature yesterday: 62 °F

Past Weeks' High & Low Weather Summary

 TemperatureHumidityPressure
High79 °F (Jan 21, 12:53 PM)100% (Jan 13, 2:00 AM)30.19 "Hg (Jan 13, 2:00 AM)
Low49 °F (Jan 25, 6:53 AM)35% (Jan 27, 10:53 AM)29.84 "Hg (Jan 26, 2:53 PM)
Average68 °F76%30.05 "Hg
* Reported Jan 12 10:53 AM — Jan 27 10:53 AM, Hollywood, Weather by CustomWeather, © 2014

Note: Actual official high and low records may vary slightly from our data, if they occured in-between our weather recording intervals... More about our weather records

Advertising

Hollywood weather history for previous 24 hours

 ConditionsComfort  
Time TempWeatherWind HumidityBarometerVisibility
10:53 AM
Jan 27
63 °FSunny.10 mph35%30.06 "Hg10 mi
9:53 AM59 °FSunny.10 mph48%30.06 "Hg10 mi
8:53 AM55 °FPassing clouds.13 mph74%30.05 "Hg10 mi
7:53 AM53 °FPassing clouds.10 mph83%30.03 "Hg10 mi
6:53 AM53 °FPassing clouds.9 mph80%30.01 "Hg10 mi
5:53 AM53 °FClear.9 mph83%30.00 "Hg10 mi
4:53 AM53 °FClear.7 mph83%29.98 "Hg10 mi
3:53 AM55 °FClear.9 mph77%29.97 "Hg10 mi
2:53 AM55 °FClear.8 mph80%29.97 "Hg10 mi
1:53 AM56 °FPassing clouds.7 mph77%29.98 "Hg10 mi
12:53 AM57 °FPassing clouds.7 mph74%29.98 "Hg10 mi
11:53 PM
Jan 26
58 °FPassing clouds.8 mph72%29.98 "Hg10 mi
10:53 PM60 °FClear.10 mph67%29.97 "Hg10 mi
9:53 PM61 °FPassing clouds.9 mph65%29.96 "Hg10 mi
8:53 PM62 °FClear.12 mph60%29.95 "Hg10 mi
7:53 PM64 °FClear.13 mph56%29.93 "Hg10 mi
6:53 PM65 °FClear.9 mph56%29.91 "Hg10 mi
5:53 PM67 °FSunny.14 mph45%29.89 "Hg10 mi
4:53 PM71 °FPassing clouds.17 mph41%29.86 "Hg10 mi
3:53 PM73 °FPassing clouds.21 mph37%29.85 "Hg10 mi
2:53 PM73 °FScattered clouds.24 mph43%29.84 "Hg10 mi
1:53 PM73 °FScattered clouds.15 mph57%29.85 "Hg10 mi
12:53 PM70 °FScattered clouds.16 mph64%29.88 "Hg10 mi
Weather by CustomWeather, © 2014

See weather overviewHow to use our weather pages